Weather in Juneau

United States     58°21′38″N   134°30′47″W
temp.,
°C
wind,
m/s
gust,
m/s
humid.,
%
clouds,
%
prec.,
mm/h
press.,
hPa
HPBL,
m
7 may, fri
fri701:00+6e2392100 0.8 1009170
04:00+5e2393100 0.8 1011100
07:00+5ese2485100 0.7 1013535
10:00+5se2389100 1.0 1014724
13:00+5se2386100 0.2 1016573
16:00+7se2278100 0.3 1016852
19:00+5e2290100 0.3 1017304
22:00+4e2296100 1.4 1017131
8 may, sat
sat801:00+4e2295100 1.2 1018139
04:00+4e2497100 2.3 1018351
07:00+4ese249698 0.6 1019505
10:00+4ese349198 0.9 1020514
13:00+7se3476100 0.1 1020875
16:00+8ese3468100 0.3 1020949
19:00+6ese3481100 0.2 1021660
22:00+4ese2494100 0.8 1022509
9 may, sun
sun901:00+3se1397100 2.2 1023580
04:00+3se1398100 3.7 1024541
07:00+3se1298100 1.5 1024351
10:00+4sse1297100 2.5 1025575
13:00+5sse229398 0.5 1026516
16:00+4se2296100 1.1 1026603
19:00+4ese119698 1.1 1025188
22:00+4se1298100 1.5 1025360
10 may, mon
mon1001:00+4ene1196100 1.1 1024338
04:00+3e129899 1.7 1023220
07:00+3e2391100 0.0 1022312
10:00+6ese2373100 0.0 1020725
13:00+8ese3463100 0.0 10191173
16:00+6ese2376100 0.3 1019698
19:00+4ese2395100 2.6 1019512
22:00+4ese2498100 4.5 1019579
11 may, tue
tue1101:00+3e2598100 2.4 1020630
04:00+3e2598100 3.3 1021620
07:00+4e2598100 2.7 1021718
10:00+4ese2596100 4.7 1022742
13:00+5se249199 1.6 1022696
16:00+5se238999 2.1 1022695
19:00+4ese0196100 2.2 1022470
22:00+4wnw119899 4.8 1023444